When you browse on this site, cookies collect data to enhance your experience and personalize the content and advertising you see.
Visit our Privacy Policy to learn more. By continuing to use the site, you agree to this use of cookies and data.
  • In Switzerland
  • List of Countries
  • For 7 days
  • Water Temperature
  • Weather Map
  • Weather Widgets
  • user-avatar
    Login

    Hourly Weather Kandi

    Today, 14 October, Monday

    Time Temperature Precipitation Wind Pressure Humidity
    00:00 +26°C° 0 mm 1 mps 737 mmHg 87%
    01:00 +26°C° 0 mm 1 mps 736 mmHg 88%
    02:00 +26°C° 0 mm 1 mps 736 mmHg 89%
    03:00 +26°C° 0 mm 1 mps 735 mmHg 90%
    04:00 +25°C° 0 mm 1 mps 736 mmHg 90%
    05:00 +25°C° 0 mm 1 mps 736 mmHg 91%
    06:00 +25°C° 0 mm 1 mps 737 mmHg 92%
    07:00 +27°C° 0 mm 1 mps 737 mmHg 86%
    08:00 +29°C° 0 mm 2 mps 737 mmHg 80%
    09:00 +30°C° 0 mm 2 mps 738 mmHg 73%
    10:00 +32°C° 0 mm 2 mps 737 mmHg 67%
    11:00 +34°C° 0 mm 2 mps 736 mmHg 60%
    12:00 +36°C° 0 mm 2 mps 736 mmHg 54%
    13:00 +36°C° 0 mm 2 mps 735 mmHg 53%
    14:00 +36°C° 0 mm 2 mps 734 mmHg 52%
    15:00 +36°C° 0 mm 2 mps 734 mmHg 52%
    16:00 +35°C° 0 mm 2 mps 734 mmHg 57%
    17:00 +32°C° 0 mm 1 mps 734 mmHg 62%
    18:00 +31°C° 0 mm 1 mps 734 mmHg 67%
    19:00 +30°C° 0 mm 1 mps 735 mmHg 70%
    20:00 +29°C° 0 mm 2 mps 735 mmHg 73%
    21:00 +29°C° 0 mm 2 mps 736 mmHg 75%
    22:00 +28°C° 0 mm 2 mps 735 mmHg 77%
    23:00 +28°C° 0 mm 2 mps 735 mmHg 79%

    Tomorrow, 15 October, Tuesday

    Time Temperature Precipitation Wind Pressure Humidity
    00:00 +27°C° 0 mm 2 mps 735 mmHg 81%
    01:00 +27°C° 0 mm 1 mps 735 mmHg 82%
    02:00 +27°C° 0 mm 1 mps 735 mmHg 84%
    03:00 +26°C° 0 mm 1 mps 735 mmHg 85%
    04:00 +26°C° 0 mm 1 mps 735 mmHg 86%
    05:00 +26°C° 0 mm 1 mps 735 mmHg 87%
    06:00 +26°C° 0 mm 1 mps 736 mmHg 88%
    07:00 +28°C° 0 mm 1 mps 736 mmHg 82%
    08:00 +29°C° 0 mm 2 mps 737 mmHg 76%
    09:00 +31°C° 0 mm 2 mps 737 mmHg 70%
    10:00 +34°C° 0 mm 2 mps 736 mmHg 64%
    11:00 +35°C° 0 mm 2 mps 736 mmHg 59%
    12:00 +36°C° 0 mm 2 mps 735 mmHg 53%
    13:00 +36°C° 0 mm 2 mps 735 mmHg 52%
    14:00 +36°C° 0 mm 2 mps 734 mmHg 51%
    15:00 +36°C° 0 mm 2 mps 734 mmHg 49%
    16:00 +34°C° 0 mm 1 mps 734 mmHg 56%
    17:00 +32°C° 0 mm 1 mps 734 mmHg 62%
    18:00 +30°C° 0 mm 1 mps 734 mmHg 68%
    19:00 +29°C° 0 mm 1 mps 735 mmHg 70%
    20:00 +29°C° 0 mm 2 mps 736 mmHg 73%
    21:00 +28°C° 0 mm 2 mps 736 mmHg 75%
    22:00 +28°C° 0 mm 2 mps 736 mmHg 78%
    23:00 +27°C° 0 mm 2 mps 736 mmHg 80%

    Day after tomorrow, 16 October, Wednesday

    Time Temperature Precipitation Wind Pressure Humidity
    00:00 +27°C° 0 mm 2 mps 736 mmHg 83%
    01:00 +27°C° 0 mm 2 mps 736 mmHg 85%
    02:00 +26°C° 0 mm 2 mps 736 mmHg 87%
    03:00 +26°C° 0 mm 2 mps 736 mmHg 90%
    04:00 +26°C° 0 mm 2 mps 736 mmHg 91%
    05:00 +26°C° 0 mm 2 mps 736 mmHg 91%
    06:00 +25°C° 0 mm 2 mps 736 mmHg 92%
    07:00 +27°C° 0 mm 2 mps 737 mmHg 86%
    08:00 +28°C° 0 mm 2 mps 737 mmHg 80%
    09:00 +30°C° 0 mm 2 mps 738 mmHg 75%
    10:00 +31°C° 0 mm 2 mps 737 mmHg 69%
    11:00 +32°C° 0 mm 2 mps 737 mmHg 63%
    12:00 +35°C° 0 mm 2 mps 736 mmHg 57%
    13:00 +35°C° 0 mm 2 mps 736 mmHg 55%
    14:00 +34°C° 0 mm 1 mps 736 mmHg 54%
    15:00 +35°C° 0 mm 1 mps 735 mmHg 52%
    16:00 +33°C° 0.6 mm 1 mps 735 mmHg 61%
    17:00 +31°C° 0.6 mm 1 mps 735 mmHg 71%
    18:00 +29°C° 0.6 mm 1 mps 735 mmHg 80%
    19:00 +28°C° 0.1 mm 1 mps 736 mmHg 83%
    20:00 +28°C° 0.1 mm 2 mps 736 mmHg 85%
    21:00 +27°C° 0.1 mm 2 mps 737 mmHg 87%
    22:00 +27°C° 0.2 mm 2 mps 737 mmHg 88%
    23:00 +26°C° 0.2 mm 2 mps 737 mmHg 90%

    17 October, Thursday

    Time Temperature Precipitation Wind Pressure Humidity
    00:00 +26°C° 0.2 mm 2 mps 737 mmHg 91%
    01:00 +26°C° 0 mm 2 mps 736 mmHg 91%
    02:00 +26°C° 0 mm 2 mps 736 mmHg 91%
    03:00 +26°C° 0 mm 2 mps 736 mmHg 90%
    04:00 +25°C° 0 mm 2 mps 736 mmHg 91%
    05:00 +25°C° 0 mm 3 mps 736 mmHg 91%
    06:00 +25°C° 0 mm 3 mps 737 mmHg 91%
    07:00 +26°C° 0 mm 3 mps 737 mmHg 85%
    08:00 +28°C° 0 mm 3 mps 737 mmHg 79%
    09:00 +29°C° 0 mm 3 mps 738 mmHg 72%
    10:00 +31°C° 0 mm 2 mps 737 mmHg 67%
    11:00 +32°C° 0 mm 2 mps 737 mmHg 62%
    12:00 +35°C° 0 mm 2 mps 736 mmHg 57%
    13:00 +35°C° 0 mm 2 mps 736 mmHg 57%
    14:00 +35°C° 0 mm 2 mps 735 mmHg 58%
    15:00 +35°C° 0 mm 2 mps 735 mmHg 58%
    16:00 +32°C° 0.1 mm 2 mps 735 mmHg 64%
    17:00 +31°C° 0.1 mm 2 mps 735 mmHg 70%
    18:00 +29°C° 0.1 mm 1 mps 735 mmHg 76%
    19:00 +29°C° 0.7 mm 2 mps 736 mmHg 80%
    20:00 +28°C° 0.7 mm 2 mps 736 mmHg 83%
    21:00 +27°C° 0.7 mm 2 mps 737 mmHg 86%
    22:00 +27°C° 0 mm 2 mps 737 mmHg 87%
    23:00 +27°C° 0 mm 2 mps 736 mmHg 88%

    18 October, Friday

    Time Temperature Precipitation Wind Pressure Humidity
    00:00 +26°C° 0 mm 2 mps 736 mmHg 89%
    01:00 +26°C° 0 mm 2 mps 736 mmHg 89%
    02:00 +26°C° 0 mm 2 mps 736 mmHg 90%
    03:00 +26°C° 0 mm 2 mps 736 mmHg 91%
    04:00 +25°C° 0 mm 2 mps 736 mmHg 91%
    05:00 +25°C° 0 mm 2 mps 736 mmHg 91%
    06:00 +25°C° 0 mm 2 mps 736 mmHg 91%
    07:00 +27°C° 0 mm 2 mps 736 mmHg 84%
    08:00 +29°C° 0 mm 2 mps 736 mmHg 77%
    09:00 +31°C° 0 mm 3 mps 737 mmHg 69%
    10:00 +34°C° 0 mm 2 mps 736 mmHg 63%
    11:00 +35°C° 0 mm 2 mps 735 mmHg 58%
    12:00 +37°C° 0 mm 2 mps 735 mmHg 52%
    13:00 +37°C° 0.1 mm 2 mps 734 mmHg 51%
    14:00 +37°C° 0.1 mm 2 mps 734 mmHg 51%
    15:00 +37°C° 0.1 mm 2 mps 733 mmHg 50%
    16:00 +35°C° 0.1 mm 2 mps 733 mmHg 57%
    17:00 +32°C° 0.1 mm 2 mps 734 mmHg 65%
    18:00 +30°C° 0.1 mm 2 mps 734 mmHg 72%
    19:00 +29°C° 0.1 mm 2 mps 734 mmHg 75%
    20:00 +28°C° 0.1 mm 2 mps 734 mmHg 77%
    21:00 +28°C° 0.1 mm 2 mps 735 mmHg 79%
    22:00 +27°C° 0 mm 2 mps 735 mmHg 80%
    23:00 +27°C° 0 mm 2 mps 735 mmHg 82%

    19 October, Saturday

    Time Temperature Precipitation Wind Pressure Humidity
    00:00 +27°C° 0 mm 2 mps 735 mmHg 83%
    01:00 +26°C° 0 mm 2 mps 735 mmHg 83%
    02:00 +26°C° 0 mm 2 mps 734 mmHg 83%
    03:00 +26°C° 0 mm 2 mps 734 mmHg 83%
    04:00 +26°C° 0 mm 2 mps 734 mmHg 85%
    05:00 +26°C° 0 mm 2 mps 734 mmHg 86%
    06:00 +26°C° 0 mm 2 mps 735 mmHg 87%
    07:00 +27°C° 0 mm 2 mps 735 mmHg 82%
    08:00 +29°C° 0 mm 2 mps 735 mmHg 76%
    09:00 +30°C° 0 mm 2 mps 736 mmHg 70%
    10:00 +32°C° 0 mm 2 mps 735 mmHg 64%
    11:00 +34°C° 0 mm 1 mps 735 mmHg 58%
    12:00 +35°C° 0 mm 1 mps 734 mmHg 52%
    13:00 +35°C° 0 mm 1 mps 734 mmHg 50%
    14:00 +36°C° 0 mm 1 mps 733 mmHg 49%
    15:00 +34°C° 0 mm 0 mps 733 mmHg 47%
    16:00 +34°C° 0 mm 1 mps 733 mmHg 53%
    17:00 +32°C° 0 mm 1 mps 733 mmHg 59%
    18:00 +31°C° 0 mm 2 mps 733 mmHg 64%
    19:00 +29°C° 0.6 mm 2 mps 734 mmHg 71%
    20:00 +28°C° 0.6 mm 1 mps 735 mmHg 77%
    21:00 +27°C° 0.6 mm 1 mps 735 mmHg 83%
    22:00 +27°C° 1 mm 2 mps 735 mmHg 84%
    23:00 +26°C° 1 mm 3 mps 735 mmHg 85%
    Show more